CDT,Max TemperatureF,Mean TemperatureF,Min TemperatureF,Max Dew PointF,MeanDew PointF,Min DewpointF,Max Humidity, Mean Humidity, Min Humidity, Max Sea Level PressureIn, Mean Sea Level PressureIn, Min Sea Level PressureIn, Max VisibilityMiles, Mean VisibilityMiles, Min VisibilityMiles, Max Wind SpeedMPH, Mean Wind SpeedMPH, Max Gust SpeedMPH,PrecipitationIn, CloudCover, Events, WindDirDegrees
2012-10-1,71,58,44,46,40,30,82,58,23,29.92,29.87,29.81,10,10,3,7,1,,0.00,0,,36
2012-10-2,77,60,42,45,38,27,82,54,16,29.91,29.87,29.83,10,9,4,9,1,,0.00,0,,44
2012-10-3,78,60,42,46,40,34,82,54,21,30.00,29.94,29.90,10,10,7,9,1,,0.00,0,,139
2012-10-4,64,53,42,52,43,37,87,73,45,30.20,30.09,29.99,10,9,2,18,4,26,0.02,2,Rain,265
2012-10-5,48,42,35,36,27,19,75,54,32,30.24,30.20,30.15,10,10,10,17,7,23,0.00,1,,290
2012-10-6,48,39,30,27,23,19,69,51,34,30.25,30.22,30.18,10,10,10,23,7,32,0.00,4,,299
2012-10-7,55,42,30,28,17,-2,70,42,10,30.25,30.19,30.12,10,10,10,13,4,24,0.00,3,,277
2012-10-8,64,47,30,32,25,16,75,45,15,30.12,30.02,29.93,10,10,7,25,7,33,0.00,0,,185
2012-10-9,64,53,42,43,35,30,87,55,30,30.02,29.91,29.84,10,10,7,20,10,30,0.07,3,Rain,234
2012-10-10,57,45,33,34,25,12,81,54,18,30.20,30.14,30.02,10,10,10,22,9,29,0.00,1,,277
2012-10-11,73,52,30,34,28,21,81,42,14,30.30,30.12,30.03,10,10,10,18,7,25,0.00,1,,251
2012-10-12,60,48,37,37,15,-22,58,32,4,30.45,30.33,30.18,10,10,10,15,8,17,0.00,1,Rain,81
2012-10-13,68,59,50,63,54,43,88,82,72,30.14,29.90,29.73,10,7,3,13,6,17,0.88,7,Rain,162
2012-10-14,66,56,44,61,52,39,88,82,76,29.90,29.66,29.46,10,9,3,32,9,43,0.74,6,Rain,241
2012-10-15,66,54,42,45,40,36,87,68,34,29.99,29.94,29.89,10,9,1,7,2,,0.00,0,,288
2012-10-16,80,60,39,50,44,36,87,58,30,29.91,29.63,29.45,10,9,0,20,6,26,0.00,0,Fog,187
2012-10-17,66,58,48,55,48,39,88,66,45,29.49,29.42,29.35,10,10,7,20,10,26,0.34,4,Rain,213
2012-10-18,50,47,44,43,39,34,87,74,54,29.43,29.41,29.39,10,9,5,23,13,36,0.26,7,Rain,236
2012-10-19,55,50,44,46,43,39,87,79,54,29.72,29.56,29.39,10,9,3,22,9,29,0.08,7,Rain,290
2012-10-20,57,48,39,43,40,36,87,76,51,29.92,29.84,29.73,10,8,1,9,3,,0.00,3,,279
2012-10-21,75,56,37,54,45,34,87,69,44,29.93,29.89,29.85,10,9,7,10,3,,0.00,0,,139
2012-10-22,69,62,55,64,59,52,88,83,77,29.90,29.85,29.76,10,7,0,7,1,10,0.19,6,Fog-Rain,119
2012-10-23,75,68,60,63,61,55,88,77,61,29.87,29.83,29.78,10,7,0,15,4,18,0.04,6,Fog-Rain,165
2012-10-24,82,72,62,66,63,57,88,73,54,29.87,29.80,29.73,10,10,7,22,6,28,0.08,2,Rain,172
2012-10-25,73,58,42,63,49,30,87,73,61,30.21,29.83,29.63,10,10,2,25,16,34,0.13,6,Rain,252
2012-10-26,48,40,32,30,26,21,80,58,34,30.39,30.34,30.22,10,10,10,20,11,29,0.00,1,,324
2012-10-27,46,37,28,27,23,19,80,59,34,30.40,30.34,30.29,10,10,10,9,4,,0.00,1,,346
2012-10-28,51,38,26,27,23,19,80,58,28,30.35,30.31,30.28,10,10,7,9,1,,0.00,0,,40
2012-10-29,53,40,26,28,23,12,86,58,19,30.36,30.29,30.18,10,9,3,8,1,,0.00,1,,37
2012-10-30,55,44,32,27,17,-8,70,42,7,30.18,30.02,29.92,10,10,10,20,8,34,0.00,0,,330
2012-10-31,53,40,28,25,16,1,75,44,12,29.98,29.95,29.92,10,10,10,21,7,34,0.00,0,,309